Regional Weather Roundup
Issued by NWS

Home | Current Version | Previous Version | Graphics & Text | Print | Product List | Glossary On
Versions: 1 2 3 4 5 6 7 8 9 10 11 12 13 14 15 16 17 18 19 20 21 22 23 24 25 26 27 28 29 30 31 32 33 34 35 36 37 38 39 40 41 42 43 44 45 46 47 48 49 50
093
ASUS44 KLIX 230705
RWRLA
LOUISIANA WEATHER ROUNDUP
NATIONAL WEATHER SERVICE NEW ORLEANS LA
200 AM CDT WED APR 23 2014

NOTE: "FAIR" INDICATES FEW OR NO CLOUDS BELOW 12,000 FEET WITH NO
      SIGNIFICANT WEATHER AND/OR OBSTRUCTIONS TO VISIBILITY.
      SKY/WX - SKY CONDITION AND SIGNIFICANT WEATHER.
      TMP - AIR TEMPERATURE.    DP   - DEWPOINT TEMPERATURE.
      RH  - RELATIVE HUMIDITY.  PRES - PRESSURE.
      HX  - HEAT INDEX.         WCI  - WIND CHILL INDEX.

*  THESE STATIONS ARE NOT NWS OR FAA STATIONS AND ARE NOT UNDER
   NWS QUALITY CONTROL.

LAZ040-048-061>063-065-066-069-230800-
SOUTHEAST LOUISIANA

CITY           SKY/WX    TMP DP  RH WIND       PRES   REMARKS
N.O. AUDUBON   NOT AVBL
N.O. INTL ARPT CLEAR     65  63  93 CALM      29.93S
N.O. LAKEFRONT CLEAR     68  65  90 N5        29.93S
N.O. DOWNTOWN* FAIR      70  61  73 CALM      29.93S
SLIDELL        CLEAR     60  57  89 CALM      29.92S
BATON ROUGE    CLEAR     63  59  87 CALM      29.94S
BOOTHVILLE     CLEAR     67  66  97 W6        29.93S FOG
BELLE CHASSE   CLEAR     61  58  90 CALM      29.92S
BOGALUSA*        N/A     59  56  90 CALM      29.94F
GALLIANO*      FOG       61  60  96 NW3       29.93S VSB 1/4
NEW ROADS*     FAIR      60  58  95 W5        29.95R
GONZALES*      FAIR      60  60 100 CALM      29.93S
HAMMOND*       CLEAR     61  59  94 N6        29.94F
HOUMA*         FOG       64  63  94 CALM      29.94S VSB 1/4
PORT FOURCHON* MOSUNNY   70  68  94 W6        29.95S

$$

LAZ041-044-053-054-230800-
SOUTHWEST LOUISIANA

CITY           SKY/WX    TMP DP  RH WIND       PRES   REMARKS
LAKE CHARLES   CLOUDY    63  61  93 CALM      29.94S FOG
LAFAYETTE      CLEAR     63  62  97 CALM      29.95S
PATTERSON        N/A     63  61  94 CALM      29.97S VSB 1/2
SALT POINT       N/A     71  69  93 CALM      29.93F
NEW IBERIA     CLEAR     63  60  90 W3        29.95S
CHENAULT AIRPK FOG       63  63 100 CALM      29.95F VSB<1/4

$$

LAZ027-028-230800-
CENTRAL LOUISIANA

CITY           SKY/WX    TMP DP  RH WIND       PRES   REMARKS
FORT POLK      CLEAR     61  58  90 CALM      29.95S
ALEXANDRIA INT CLEAR     60  60 100 CALM      29.94S
ALEXANDRIA     PTCLDY    58  56  93 CALM      29.95S FOG

$$

LAZ001-002-230800-
NORTHWEST LOUISIANA

CITY           SKY/WX    TMP DP  RH WIND       PRES   REMARKS
SHREVEPORT     CLEAR     59  56  89 CALM      29.93F
BARKSDALE AFB  CLEAR     62  59  88 CALM      29.94S
DTN SHREVEPORT CLEAR     59  57  93 CALM      29.94S

$$

LAZ014-016-230800-
NORTHEAST LOUISIANA

CITY           SKY/WX    TMP DP  RH WIND       PRES   REMARKS
MONROE         CLEAR     59  58  96 CALM      29.96S FOG
TALLULAH       FOG       60  59  96 CALM      29.95S VSB 1/2

$$




USA.gov is the U.S. government's official web portal to all federal, state and local government web resources and services.